Location: Trois-Rivi�res
(46.3500°N, 72.5500°W)
Time: 05:22:29
(UTC-04:00)

ISS - Pass Details

Date: 15 October 2017
Orbit: 400 x 408 km, 51.6° (Epoch: 24 October)

Event Time Altitude Azimuth Distance (km) Brightness Sun altitude
Rises 18:33:34 0° 294° (WNW) 2,325 1.2 -6.0°
Reaches altitude 10° 18:35:43 10° 287° (WNW) 1,464 0.3 -6.4°
Maximum altitude 18:38:50 41° 216° (SW) 602 -2.6 -6.9°
Drops below altitude 10° 18:41:56 10° 144° (SE) 1,460 -1.3 -7.4°
Sets 18:44:04 0° 137° (SE) 2,318 -0.4 -7.8°
Enters shadow 18:44:07 - 137° (SE) 2,339 -0.3 -7.8°
